When you browse on this site, cookies collect data to enhance your experience and personalize the content and advertising you see.
Visit our Privacy Policy to learn more. By continuing to use the site, you agree to this use of cookies and data.
  • In Österreich
  • Länderverzeichnis
  • Für 7 Tage
  • Wassertemperatur
  • Wetterkarte
  • News
  • Widgets
  • user-avatar
    Anmelden

    Stündliche Wetter Ansfelden

    Heute, 22 September, Sonntag

    Zeit Temperatur Niederschläge Wind Luftdruck Luftfeuchtigkeit
    00:00 +9°C° 0 mm 2 m/S 738 mmHg 75%
    01:00 +9°C° 0 mm 2 m/S 737 mmHg 79%
    02:00 +9°C° 0 mm 2 m/S 737 mmHg 80%
    03:00 +8°C° 0 mm 2 m/S 737 mmHg 81%
    04:00 +8°C° 0 mm 2 m/S 736 mmHg 82%
    05:00 +9°C° 0 mm 1 m/S 736 mmHg 80%
    06:00 +10°C° 0 mm 1 m/S 736 mmHg 79%
    07:00 +10°C° 0 mm 1 m/S 736 mmHg 78%
    08:00 +12°C° 0 mm 2 m/S 736 mmHg 71%
    09:00 +15°C° 0 mm 2 m/S 736 mmHg 64%
    10:00 +17°C° 0 mm 2 m/S 735 mmHg 58%
    11:00 +18°C° 0 mm 2 m/S 735 mmHg 56%
    12:00 +19°C° 0 mm 2 m/S 734 mmHg 54%
    13:00 +20°C° 0 mm 2 m/S 734 mmHg 52%
    14:00 +21°C° 0 mm 1 m/S 734 mmHg 55%
    15:00 +21°C° 0 mm 1 m/S 733 mmHg 59%
    16:00 +21°C° 0 mm 1 m/S 733 mmHg 63%
    17:00 +19°C° 0 mm 1 m/S 733 mmHg 68%
    18:00 +16°C° 0 mm 1 m/S 733 mmHg 74%
    19:00 +13°C° 0 mm 0 m/S 733 mmHg 80%
    20:00 +13°C° 0 mm 0 m/S 733 mmHg 80%
    21:00 +13°C° 0 mm 0 m/S 733 mmHg 80%
    22:00 +12°C° 0 mm 0 m/S 733 mmHg 80%
    23:00 +12°C° 0 mm 0 m/S 733 mmHg 81%

    Morgen, 23 September, Montag

    Zeit Temperatur Niederschläge Wind Luftdruck Luftfeuchtigkeit
    00:00 +12°C° 0 mm 0 m/S 733 mmHg 81%
    01:00 +12°C° 0 mm 0 m/S 733 mmHg 81%
    02:00 +12°C° 0 mm 0 m/S 733 mmHg 81%
    03:00 +11°C° 0 mm 0 m/S 733 mmHg 81%
    04:00 +11°C° 0 mm 0 m/S 732 mmHg 81%
    05:00 +12°C° 0 mm 0 m/S 733 mmHg 81%
    06:00 +13°C° 0 mm 1 m/S 733 mmHg 81%
    07:00 +14°C° 0 mm 1 m/S 733 mmHg 81%
    08:00 +15°C° 0 mm 2 m/S 734 mmHg 80%
    09:00 +16°C° 0 mm 3 m/S 734 mmHg 79%
    10:00 +18°C° 0 mm 4 m/S 734 mmHg 78%
    11:00 +17°C° 0.1 mm 4 m/S 734 mmHg 82%
    12:00 +15°C° 0.1 mm 5 m/S 734 mmHg 85%
    13:00 +14°C° 0.1 mm 6 m/S 734 mmHg 89%
    14:00 +14°C° 0.5 mm 5 m/S 735 mmHg 90%
    15:00 +13°C° 0.5 mm 5 m/S 735 mmHg 92%
    16:00 +13°C° 0.5 mm 5 m/S 735 mmHg 94%
    17:00 +13°C° 0.2 mm 4 m/S 735 mmHg 94%
    18:00 +13°C° 0.2 mm 4 m/S 736 mmHg 94%
    19:00 +12°C° 0.2 mm 4 m/S 736 mmHg 95%
    20:00 +12°C° 0.2 mm 3 m/S 736 mmHg 94%
    21:00 +12°C° 0.2 mm 3 m/S 737 mmHg 94%
    22:00 +12°C° 0.2 mm 3 m/S 737 mmHg 94%
    23:00 +12°C° 0 mm 3 m/S 737 mmHg 94%

    übermorgen, 24 September, Dienstag

    Zeit Temperatur Niederschläge Wind Luftdruck Luftfeuchtigkeit
    00:00 +13°C° 0 mm 2 m/S 737 mmHg 94%
    01:00 +13°C° 0 mm 2 m/S 736 mmHg 94%
    02:00 +13°C° 0 mm 2 m/S 736 mmHg 94%
    03:00 +13°C° 0 mm 1 m/S 736 mmHg 94%
    04:00 +13°C° 0 mm 1 m/S 736 mmHg 94%
    05:00 +13°C° 0 mm 1 m/S 736 mmHg 94%
    06:00 +13°C° 0 mm 1 m/S 736 mmHg 93%
    07:00 +12°C° 0 mm 0 m/S 736 mmHg 93%
    08:00 +14°C° 0 mm 0 m/S 735 mmHg 86%
    09:00 +16°C° 0 mm 1 m/S 735 mmHg 80%
    10:00 +19°C° 0 mm 1 m/S 735 mmHg 74%
    11:00 +20°C° 0 mm 1 m/S 735 mmHg 68%
    12:00 +21°C° 0 mm 1 m/S 734 mmHg 63%
    13:00 +22°C° 0 mm 1 m/S 734 mmHg 58%
    14:00 +22°C° 0 mm 1 m/S 733 mmHg 59%
    15:00 +21°C° 0 mm 1 m/S 733 mmHg 59%
    16:00 +21°C° 0 mm 1 m/S 732 mmHg 60%
    17:00 +19°C° 0 mm 1 m/S 732 mmHg 67%
    18:00 +16°C° 0 mm 1 m/S 732 mmHg 73%
    19:00 +14°C° 0 mm 0 m/S 732 mmHg 80%
    20:00 +14°C° 0 mm 1 m/S 732 mmHg 81%
    21:00 +14°C° 0 mm 1 m/S 732 mmHg 82%
    22:00 +14°C° 0 mm 1 m/S 732 mmHg 83%
    23:00 +14°C° 0 mm 1 m/S 732 mmHg 83%

    25 September, Mittwoch

    Zeit Temperatur Niederschläge Wind Luftdruck Luftfeuchtigkeit
    00:00 +14°C° 0 mm 1 m/S 732 mmHg 84%
    01:00 +14°C° 0 mm 1 m/S 732 mmHg 85%
    02:00 +14°C° 0 mm 1 m/S 732 mmHg 85%
    03:00 +14°C° 0 mm 1 m/S 732 mmHg 86%
    04:00 +13°C° 0 mm 0 m/S 732 mmHg 86%
    05:00 +13°C° 0 mm 0 m/S 732 mmHg 87%
    06:00 +14°C° 0 mm 1 m/S 732 mmHg 87%
    07:00 +14°C° 0 mm 1 m/S 731 mmHg 88%
    08:00 +15°C° 0.1 mm 2 m/S 732 mmHg 84%
    09:00 +16°C° 0.1 mm 3 m/S 732 mmHg 81%
    10:00 +17°C° 0.1 mm 4 m/S 732 mmHg 78%
    11:00 +17°C° 0.4 mm 4 m/S 732 mmHg 78%
    12:00 +16°C° 0.4 mm 5 m/S 732 mmHg 79%
    13:00 +15°C° 0.4 mm 5 m/S 732 mmHg 80%
    14:00 +15°C° 0.4 mm 5 m/S 732 mmHg 82%
    15:00 +14°C° 0.4 mm 4 m/S 732 mmHg 84%
    16:00 +14°C° 0.4 mm 4 m/S 732 mmHg 86%
    17:00 +13°C° 0.2 mm 3 m/S 733 mmHg 88%
    18:00 +13°C° 0.2 mm 3 m/S 733 mmHg 89%
    19:00 +13°C° 0.2 mm 2 m/S 733 mmHg 91%
    20:00 +13°C° 0 mm 2 m/S 734 mmHg 91%
    21:00 +12°C° 0 mm 2 m/S 734 mmHg 91%
    22:00 +12°C° 0 mm 2 m/S 734 mmHg 91%
    23:00 +12°C° 0 mm 2 m/S 734 mmHg 92%

    26 September, Donnerstag

    Zeit Temperatur Niederschläge Wind Luftdruck Luftfeuchtigkeit
    00:00 +12°C° 0 mm 2 m/S 734 mmHg 92%
    01:00 +12°C° 0 mm 2 m/S 735 mmHg 93%
    02:00 +12°C° 0 mm 2 m/S 735 mmHg 92%
    03:00 +12°C° 0 mm 2 m/S 735 mmHg 92%
    04:00 +12°C° 0 mm 2 m/S 735 mmHg 92%
    05:00 +12°C° 0 mm 2 m/S 735 mmHg 92%
    06:00 +12°C° 0 mm 2 m/S 735 mmHg 92%
    07:00 +12°C° 0 mm 2 m/S 736 mmHg 92%
    08:00 +14°C° 0 mm 2 m/S 736 mmHg 85%
    09:00 +14°C° 0 mm 3 m/S 736 mmHg 78%
    10:00 +17°C° 0 mm 4 m/S 736 mmHg 71%
    11:00 +17°C° 0 mm 3 m/S 736 mmHg 70%
    12:00 +17°C° 0 mm 3 m/S 736 mmHg 68%
    13:00 +18°C° 0 mm 3 m/S 735 mmHg 66%
    14:00 +18°C° 0 mm 3 m/S 735 mmHg 66%
    15:00 +18°C° 0 mm 2 m/S 735 mmHg 66%
    16:00 +19°C° 0 mm 2 m/S 735 mmHg 67%
    17:00 +19°C° 0 mm 1 m/S 735 mmHg 71%
    18:00 +16°C° 0 mm 1 m/S 735 mmHg 75%
    19:00 +15°C° 0 mm 1 m/S 735 mmHg 79%
    20:00 +15°C° 0 mm 1 m/S 736 mmHg 79%
    21:00 +14°C° 0 mm 0 m/S 736 mmHg 80%
    22:00 +14°C° 0 mm 0 m/S 736 mmHg 80%
    23:00 +13°C° 0 mm 0 m/S 736 mmHg 82%

    27 September, Freitag

    Zeit Temperatur Niederschläge Wind Luftdruck Luftfeuchtigkeit
    00:00 +13°C° 0 mm 0 m/S 736 mmHg 83%
    01:00 +12°C° 0 mm 0 m/S 736 mmHg 84%
    02:00 +12°C° 0 mm 0 m/S 736 mmHg 85%
    03:00 +12°C° 0 mm 0 m/S 736 mmHg 86%
    04:00 +11°C° 0 mm 0 m/S 736 mmHg 86%
    05:00 +12°C° 0 mm 0 m/S 736 mmHg 84%
    06:00 +12°C° 0 mm 0 m/S 736 mmHg 83%
    07:00 +13°C° 0 mm 0 m/S 735 mmHg 81%
    08:00 +14°C° 0 mm 0 m/S 736 mmHg 79%
    09:00 +14°C° 0 mm 0 m/S 736 mmHg 77%
    10:00 +15°C° 0 mm 0 m/S 736 mmHg 75%
    11:00 +15°C° 0 mm 0 m/S 735 mmHg 73%
    12:00 +16°C° 0 mm 0 m/S 735 mmHg 71%
    13:00 +19°C° 0 mm 1 m/S 735 mmHg 70%
    14:00 +19°C° 0 mm 1 m/S 735 mmHg 68%
    15:00 +20°C° 0 mm 1 m/S 734 mmHg 67%
    16:00 +20°C° 0 mm 1 m/S 734 mmHg 66%
    17:00 +19°C° 0 mm 1 m/S 734 mmHg 70%
    18:00 +18°C° 0 mm 1 m/S 735 mmHg 73%
    19:00 +15°C° 0 mm 0 m/S 735 mmHg 77%
    20:00 +16°C° 0 mm 1 m/S 735 mmHg 76%
    21:00 +16°C° 0 mm 2 m/S 735 mmHg 76%
    22:00 +16°C° 0 mm 2 m/S 736 mmHg 75%
    23:00 +15°C° 0.7 mm 2 m/S 736 mmHg 81%
    Mehr zeigen